Regional Weather Roundup
Issued by NWS

Home | Current Version | Previous Version | Graphics & Text | Print | Product List | Glossary On
Versions: 1 2 3 4 5 6 7 8 9 10 11 12 13 14 15 16 17 18 19 20 21 22 23 24 25 26 27 28 29 30 31 32 33 34 35 36 37 38 39 40 41 42 43 44 45 46 47 48 49 50
000
ASUS43 KTOP 210959
RWRKS

WEATHER ROUNDUP FOR KANSAS
NATIONAL WEATHER SERVICE GOODLAND KS
500 AM CDT TUE APR 21 2015

NOTE:  "FAIR" INDICATES FEW OR NO CLOUDS BELOW 12,000 FEET WITH NO
SIGNIFICANT WEATHER AND/OR OBSTRUCTIONS TO VISIBILITY.

KSZ001>006-013>018-027>032-041>047-211100-
NORTHWEST KANSAS

CITY           SKY/WX    TMP DP  RH WIND       PRES   REMARKS
GOODLAND       CLEAR     37  31  78 W12       29.91S WCI  29
HAYS           CLOUDY    41  28  60 W6        29.87F
HILL CITY      MOCLDY    40  32  73 W7        29.88F
RUSSELL        MOCLDY    43  34  70 SW9       29.86S
$$

KSZ061>065-074>080-084>089-211100-
SOUTHWEST KANSAS

CITY           SKY/WX    TMP DP  RH WIND       PRES   REMARKS
DODGE CITY     CLEAR     46  35  65 SW12      29.92S
ELKHART          N/A     46  38  74 W7          N/A
GARDEN CITY    CLEAR     39  33  79 SW6       29.91F
GREAT BEND     CLEAR     43  36  75 W8        29.90S
LIBERAL        CLEAR     41  34  75 W5        29.95F
$$

KSZ066>073-081>083-090>101-211100-
SOUTHEAST KANSAS

CITY           SKY/WX    TMP DP  RH WIND       PRES   REMARKS
CHANUTE        MOCLDY    47  39  74 SW8       29.90F
COFFEYVILLE    PTCLDY    47  38  71 S5        29.92S
HUTCHINSON     PTCLDY    45  36  70 NW3       29.90F
MEDICINE LODGE   N/A     50  39  66 CALM      29.92F
NEWTON         PTCLDY    45  34  65 SW8       29.91F
PARSONS        PTCLDY    42  40  92 CALM      29.92S
WICHITA INTL   PTCLDY    46  38  73 W3        29.90F
WICHITA JABRA  MOCLDY    51  37  58 W9        29.90F
WINFIELD       PTCLDY    47  41  80 SW6       29.93F
$$

KSZ007>012-019>026-033>040-048>060-102>105-211100-
NORTHEAST KANSAS

CITY           SKY/WX    TMP DP  RH WIND       PRES   REMARKS
CONCORDIA      PTCLDY    37  30  75 W6        29.88S
EMPORIA        CLEAR     47  37  68 SW9       29.87F
LAWRENCE       PTCLDY    38  34  85 NW5       29.87S
MANHATTAN      PTCLDY    35  32  88 SW3       29.87F
OLATHE IND     PTCLDY    44  34  67 SW6       29.87S
OLATHE EXE     PTCLDY    47  32  56 W5        29.86R
SALINA         CLEAR     42  35  76 N7        29.88S
TOPEKA BILLARD CLEAR     42  33  70 W5        29.88S
TOPEKA FORBES  PTCLDY    45  30  55 NW3       29.86F
$$



USA.gov is the U.S. government's official web portal to all federal, state and local government web resources and services.